Weather History for Moultrie, GA

Change the Weather History Date:

Friday, December 14, 2012

  Actual Average (KMUL) Record (KMUL)
Temperature  
Mean Temperature 56 °F -  
Max Temperature 64 °F 66 °F 80 °F (1948)
Min Temperature 48 °F 43 °F 21 °F (1960)
Degree Days  
Heating Degree Days 9    
Growing Degree Days 6 (Base 50)    
Moisture  
Dew Point 46 °F    
Average Humidity 78    
Maximum Humidity 94    
Minimum Humidity 52    
Precipitation  
Precipitation 0.00 in - - ()
Sea Level Pressure  
Sea Level Pressure 30.27 in    
Wind  
Wind Speed 4 mph (ENE)    
Max Wind Speed 9 mph    
Max Gust Speed 16 mph    
Visibility 9 miles    
Events      
Averages and records for this station are not official NWS values.
T = Trace of Precipitation, MM = Missing Value Source: NWS Daily Summary

Daily Weather History Graph

Daily Weather History Graph

Search for Another Location

Airport:

Trip Planner

Search our weather history database for the weather conditions in past years. The results will help you decide how hot, cold, wet, or windy it might be!

Date:

Astronomy

Dec. 14, 2012 Rise Set
Actual Time 7:25 AM EST 5:34 PM EST
Civil Twilight 6:59 AM EST 6:01 PM EST
Nautical Twilight 6:28 AM EST 6:31 PM EST
Astronomical Twilight 5:59 AM EST 7:01 PM EST
Moon 8:32 AM EST (12/14) 7:21 PM EST (12/14)
Length of Visible Light 11h 02m
Length of Day
10h 08m
Waxing Crescent, 3% of the Moon is Illuminated
Dec 14
Waxing Crescent
Dec 20
First Quarter
Dec 28
Full
Jan 4
Last Quarter
Jan 11
New

Hourly Weather History & Observations

Time (EST) Temp. Dew Point Humidity Pressure Visibility Wind Dir Wind Speed Gust Speed Precip Events Conditions
12:15 AM 50.0 °F 44.6 °F 82% 30.31 in 10.0 mi ENE 4.6 mph - N/A   Overcast
12:35 AM 50.0 °F 44.6 °F 82% 30.31 in 10.0 mi ENE 4.6 mph - N/A   Overcast
12:55 AM 50.0 °F 46.4 °F 87% 30.31 in 7.0 mi East 3.5 mph - N/A   Overcast
1:15 AM 48.2 °F 46.4 °F 93% 30.31 in 7.0 mi ENE 4.6 mph - N/A   Overcast
1:35 AM 48.2 °F 46.4 °F 93% 30.31 in 5.0 mi East 5.8 mph - N/A   Overcast
1:55 AM 48.2 °F 46.4 °F 93% 30.31 in 7.0 mi ENE 5.8 mph - N/A   Overcast
2:15 AM 48.2 °F 46.4 °F 93% 30.30 in 7.0 mi East 5.8 mph - N/A   Overcast
2:35 AM 50.0 °F 46.4 °F 87% 30.30 in 7.0 mi East 3.5 mph - N/A   Overcast
2:55 AM 50.0 °F 46.4 °F 87% 30.30 in 10.0 mi East 8.1 mph - N/A   Overcast
3:15 AM 50.0 °F 46.4 °F 87% 30.30 in 10.0 mi East 4.6 mph - N/A   Overcast
3:35 AM 50.0 °F 46.4 °F 87% 30.29 in 10.0 mi ESE 8.1 mph - N/A   Overcast
3:55 AM 48.2 °F 46.4 °F 93% 30.29 in 10.0 mi East 5.8 mph - N/A   Overcast
4:15 AM 50.0 °F 46.4 °F 87% 30.29 in 10.0 mi Calm Calm - N/A   Overcast
4:35 AM 50.0 °F 46.4 °F 87% 30.29 in 10.0 mi East 5.8 mph - N/A   Overcast
4:55 AM 50.0 °F 46.4 °F 87% 30.28 in 10.0 mi Calm Calm - N/A   Overcast
5:15 AM 50.0 °F 44.6 °F 82% 30.28 in 10.0 mi East 8.1 mph - N/A   Overcast
5:35 AM 50.0 °F 44.6 °F 82% 30.28 in 10.0 mi ENE 4.6 mph - N/A   Overcast
6:15 AM 50.0 °F 44.6 °F 82% 30.30 in 10.0 mi Calm Calm - N/A   Overcast
6:35 AM 50.0 °F 44.6 °F 82% 30.31 in 10.0 mi NNE 5.8 mph - N/A   Overcast
6:55 AM 48.2 °F 44.6 °F 87% 30.32 in 7.0 mi NE 4.6 mph - N/A   Overcast
7:15 AM 48.2 °F 44.6 °F 87% 30.32 in 7.0 mi Calm Calm - N/A   Overcast
7:35 AM 48.2 °F 44.6 °F 87% 30.34 in 7.0 mi North 3.5 mph - N/A   Overcast
7:55 AM 48.2 °F 44.6 °F 87% 30.34 in 7.0 mi NNE 6.9 mph - N/A   Overcast
8:15 AM 48.2 °F 44.6 °F 87% 30.35 in 7.0 mi NNE 5.8 mph - N/A   Overcast
8:35 AM 48.2 °F 44.6 °F 87% 30.35 in 7.0 mi NE 5.8 mph - N/A   Overcast
8:55 AM 50.0 °F 44.6 °F 82% 30.36 in 10.0 mi NE 9.2 mph - N/A   Overcast
9:15 AM 50.0 °F 44.6 °F 82% 30.36 in 10.0 mi NE 5.8 mph - N/A   Overcast
9:35 AM 50.0 °F 44.6 °F 82% 30.36 in 10.0 mi NE 5.8 mph - N/A   Scattered Clouds
9:55 AM 50.0 °F 44.6 °F 82% 30.36 in 10.0 mi NE 9.2 mph - N/A   Scattered Clouds
10:15 AM 51.8 °F 44.6 °F 76% 30.36 in 10.0 mi ENE 5.8 mph - N/A   Scattered Clouds
10:35 AM 51.8 °F 44.6 °F 76% 30.36 in 10.0 mi NE 8.1 mph - N/A   Clear
10:55 AM 53.6 °F 44.6 °F 72% 30.36 in 10.0 mi NNE 8.1 mph - N/A   Clear
11:15 AM 53.6 °F 44.6 °F 72% 30.36 in 10.0 mi NE 8.1 mph - N/A   Clear
11:35 AM 55.4 °F 44.6 °F 67% 30.34 in 10.0 mi East 3.5 mph - N/A   Clear
11:55 AM 57.2 °F 44.6 °F 63% 30.32 in 10.0 mi NE 8.1 mph - N/A   Clear
12:15 PM 59.0 °F 44.6 °F 59% 30.31 in 10.0 mi ENE 9.2 mph - N/A   Clear
12:35 PM 59.0 °F 44.6 °F 59% 30.29 in 7.0 mi ENE 8.1 mph - N/A   Clear
12:55 PM 60.8 °F 46.4 °F 59% 30.27 in 10.0 mi NE 6.9 mph - N/A   Clear
1:15 PM 60.8 °F 46.4 °F 59% 30.25 in 10.0 mi East 5.8 mph - N/A   Clear
1:35 PM 60.8 °F 46.4 °F 59% 30.24 in 10.0 mi NE 6.9 mph 16.1 mph N/A   Clear
1:55 PM 62.6 °F 46.4 °F 55% 30.23 in 10.0 mi ENE 6.9 mph - N/A   Clear
2:15 PM 62.6 °F 46.4 °F 55% 30.23 in 10.0 mi ENE 3.5 mph - N/A   Clear
2:35 PM 62.6 °F 46.4 °F 55% 30.23 in 10.0 mi East 3.5 mph - N/A   Clear
2:55 PM 62.6 °F 46.4 °F 55% 30.21 in 10.0 mi NE 5.8 mph - N/A   Clear
3:15 PM 64.4 °F 46.4 °F 52% 30.21 in 10.0 mi NE 4.6 mph - N/A   Clear
3:35 PM 64.4 °F 46.4 °F 52% 30.21 in 10.0 mi North 5.8 mph - N/A   Clear
3:55 PM 64.4 °F 46.4 °F 52% 30.21 in 10.0 mi Calm Calm - N/A   Clear
4:15 PM 64.4 °F 46.4 °F 52% 30.21 in 10.0 mi NE 3.5 mph - N/A   Clear
4:35 PM 64.4 °F 46.4 °F 52% 30.20 in 10.0 mi NNE 4.6 mph - N/A   Clear
4:55 PM 62.6 °F 46.4 °F 55% 30.20 in 10.0 mi Calm Calm - N/A   Clear
5:15 PM 62.6 °F 48.2 °F 59% 30.19 in 10.0 mi Calm Calm - N/A   Clear
5:35 PM 60.8 °F 48.2 °F 63% 30.19 in 10.0 mi ENE 3.5 mph - N/A   Clear
5:55 PM 59.0 °F 48.2 °F 67% 30.21 in 10.0 mi Calm Calm - N/A   Clear
6:15 PM 55.4 °F 50.0 °F 82% 30.22 in 10.0 mi Calm Calm - N/A   Clear
6:35 PM 55.4 °F 50.0 °F 82% 30.23 in 10.0 mi Calm Calm - N/A   Clear
6:55 PM 53.6 °F 50.0 °F 88% 30.23 in 10.0 mi Calm Calm - N/A   Clear
7:15 PM 53.6 °F 50.0 °F 88% 30.24 in 10.0 mi Calm Calm - N/A   Clear
7:35 PM 51.8 °F 50.0 °F 94% 30.25 in 10.0 mi Calm Calm - N/A   Clear
7:55 PM 51.8 °F 48.2 °F 88% 30.25 in 10.0 mi Calm Calm - N/A   Clear
8:15 PM 50.0 °F 48.2 °F 94% 30.25 in 10.0 mi Calm Calm - N/A   Clear
8:35 PM 50.0 °F 46.4 °F 87% 30.24 in 10.0 mi Calm Calm - N/A   Clear
8:55 PM 50.0 °F 46.4 °F 87% 30.23 in 10.0 mi Calm Calm - N/A   Clear
9:15 PM 50.0 °F 46.4 °F 87% 30.23 in 10.0 mi Calm Calm - N/A   Clear
9:35 PM 50.0 °F 46.4 °F 87% 30.23 in 10.0 mi Calm Calm - N/A   Clear
9:55 PM 50.0 °F 48.2 °F 94% 30.21 in 10.0 mi Calm Calm - N/A   Clear
10:15 PM 50.0 °F 46.4 °F 87% 30.21 in 10.0 mi Calm Calm - N/A   Clear
10:35 PM 51.8 °F 48.2 °F 88% 30.21 in 10.0 mi ENE 3.5 mph - N/A   Clear
10:55 PM 51.8 °F 48.2 °F 88% 30.21 in 10.0 mi Calm Calm - N/A   Clear
11:15 PM 51.8 °F 48.2 °F 88% 30.20 in 10.0 mi Calm Calm - N/A   Clear
11:35 PM 51.8 °F 48.2 °F 88% 30.20 in 10.0 mi Calm Calm - N/A   Clear
11:55 PM 51.8 °F 48.2 °F 88% 30.19 in 10.0 mi Calm Calm - N/A   Clear